This demonstration page uses our WeatherBlox Daily Observations layout. Learn more.

Left ArrowRight Arrow

39.01783, -85.05884

Hourly Observations for August 12, 2016

Temp ( °F °C ) Dew Point ( °F °C ) Humidity (%) Winds ( mph kmh ) Pressure ( in mb ) Visibility ( mi km ) Precip ( " mm )
12:52 am 00:52 Clear 76 24.4 73 22.8 91 91 N N/A 29.95 1014 10 16 N/A
1:52 am 01:52 Clear 77 25 73 22.8 88 88 N N/A 29.97 1015 10 16 N/A
2:52 am 02:52 Mostly Cloudy 74 23.3 73 22.8 97 97 N N/A 29.96 1015 10 16 N/A
3:52 am 03:52 Mostly Cloudy 74 23.3 73 22.8 97 97 S 3 6 29.96 1014 10 16 N/A
4:52 am 04:52 Mostly Cloudy 74 23.3 73 22.8 97 97 S 3 6 29.95 1014 10 16 N/A
5:52 am 05:52 Partly Cloudy 74 23.3 73 22.8 97 97 S 6 9 29.94 1014 10 16 N/A
6:52 am 06:52 Mostly Cloudy 76 24.4 73 22.8 91 91 S 7 11 29.94 1014 10 16 N/A
7:52 am 07:52 Partly Cloudy 78 25.6 73 22.8 85 85 SSW 9 15 29.95 1014 10 16 N/A
8:52 am 08:52 Partly Cloudy 81 27.2 73 22.8 77 77 SSW 9 15 29.94 1014 10 16 N/A
9:52 am 09:52 Partly Cloudy 83 28.3 73 22.8 72 72 SW 7 11 29.94 1014 10 16 N/A
10:52 am 10:52 Partly Cloudy 86 30 73 22.8 65 65 VRB 7 11 29.93 1014 10 16 N/A
11:52 am 11:52 Mostly Cloudy 87 30.6 73 22.8 63 63 SW 12 19 29.93 1014 10 16 N/A
12:52 pm 12:52 Mostly Cloudy 86 30 73 22.8 65 65 SSW 7 11 29.92 1013 10 16 N/A
1:52 pm 13:52 Mostly Cloudy 91 32.8 73 22.8 56 56 S 15 24 29.90 1013 10 16 N/A
2:52 pm 14:52 Mostly Cloudy 91 32.8 72 22.2 54 54 S 14 22 29.90 1012 10 16 N/A
3:52 pm 15:52 Cloudy 88 31.1 73 22.8 61 61 SSW 8 13 29.89 1012 10 16 N/A
4:52 pm 16:52 Cloudy 87 30.6 74 23.3 65 65 SW 7 11 29.88 1012 10 16 N/A
5:52 pm 17:52 Cloudy 87 30.6 73 22.8 63 63 SSW 12 19 29.88 1012 10 16 N/A
6:52 pm 18:52 Mostly Cloudy 87 30.6 75 23.9 67 67 S 6 9 29.85 1011 10 16 N/A
7:52 pm 19:52 Partly Cloudy 85 29.4 74 23.3 70 70 S 7 11 29.83 1010 10 16 N/A
8:52 pm 20:52 Mostly Clear 82 27.8 74 23.3 77 77 S 3 6 29.85 1011 10 16 N/A
9:52 pm 21:52 Partly Cloudy 81 27.2 75 23.9 82 82 N N/A 29.88 1012 10 16 N/A
10:52 pm 22:52 Cloudy 80 26.7 75 23.9 85 85 S 5 7 29.89 1012 10 16 N/A
11:52 pm 23:52 Mostly Cloudy 80 26.7 75 23.9 85 85 S 5 7 29.88 1012 10 16 N/A

Powered by AerisWeather